This demonstration page uses our WeatherBlox Daily Observations layout. Learn more.

Left ArrowRight Arrow

39.51506, -84.39828

Hourly Observations for June 21, 2017

Temp ( °F °C ) Dew Point ( °F °C ) Humidity (%) Winds ( mph kmh ) Pressure ( in mb ) Visibility ( mi km ) Precip ( " mm )
12:10 am 00:10 Mostly Cloudy 72 22.3 55 13 56 56 NW 13 20 30.00 1016 10 16 N/A
12:35 am 00:35 Partly Cloudy 71 21.4 55 12.6 57 57 NNE 6 9 29.97 1015 10 16 N/A
12:55 am 00:55 Clear 69 20.8 54 12.2 58 58 N 5 7 29.97 1015 10 16 N/A
1:15 am 01:15 Partly Cloudy 69 20.8 55 12.6 60 60 N 3 6 29.97 1015 10 16 N/A
1:35 am 01:35 Mostly Cloudy 69 20.8 56 13.3 62 62 N N/A 29.97 1015 10 16 N/A
1:55 am 01:55 Mostly Cloudy 69 20.8 58 14.5 67 67 N N/A 29.97 1015 10 16 N/A
2:15 am 02:15 Mostly Cloudy 69 20.8 58 14.2 66 66 N N/A 29.97 1015 10 16 N/A
2:35 am 02:35 Cloudy 69 20.8 56 13.4 63 63 N N/A 29.94 1014 10 16 N/A
2:55 am 02:55 Mostly Cloudy 69 20.8 57 14 65 65 N N/A 29.94 1014 10 16 N/A
3:15 am 03:15 Partly Cloudy 69 20.8 59 15.1 70 70 N N/A 29.94 1014 10 16 N/A
3:35 am 03:35 Partly Cloudy 68 19.8 59 15.1 74 74 N N/A 29.94 1014 10 16 N/A
3:55 am 03:55 Mostly Cloudy 67 19.5 59 15.1 76 76 N N/A 29.94 1014 10 16 N/A
4:15 am 04:15 Mostly Cloudy 67 19.5 59 15.2 76 76 WNW 3 6 29.94 1014 10 16 N/A
4:35 am 04:35 Partly Cloudy 67 19.5 59 14.8 74 74 N N/A 29.94 1014 10 16 N/A
4:55 am 04:55 Partly Cloudy 69 20.4 59 15.2 72 72 N N/A 29.94 1014 10 16 N/A
5:15 am 05:15 Partly Cloudy 64 18 58 14.4 80 80 N N/A 29.94 1014 10 16 N/A
5:35 am 05:35 Mostly Cloudy 64 18 58 14.4 80 80 N N/A 29.94 1014 10 16 N/A
5:55 am 05:55 Mostly Cloudy 64 18 58 14.6 81 81 N N/A 29.94 1014 10 16 N/A
6:15 am 06:15 Partly Cloudy 63 17.1 57 13.9 82 82 N N/A 29.97 1015 10 16 N/A
6:35 am 06:35 Sunny 62 16.9 57 13.7 82 82 N N/A 29.97 1015 10 16 N/A
6:55 am 06:55 Mostly Cloudy 63 17 57 13.7 81 81 N 6 9 29.97 1015 10 16 N/A
7:15 am 07:15 Partly Cloudy 67 19.2 59 15 77 77 N N/A 29.97 1015 10 16 N/A
7:30 am 07:30 Partly Cloudy 69 20.7 62 16.4 77 77 N N/A 29.97 1015 10 16 N/A
7:55 am 07:55 Mostly Cloudy 69 20.8 60 15.4 71 71 N N/A 29.97 1015 10 16 N/A
8:15 am 08:15 Mostly Cloudy 69 20.8 60 15.5 72 72 N N/A 30.00 1016 10 16 N/A
8:35 am 08:35 Cloudy 69 20.8 60 15.4 71 71 N N/A 30.00 1016 10 16 N/A
8:55 am 08:55 Cloudy 69 20.8 58 14.7 68 68 N N/A 29.97 1015 10 16 N/A
9:15 am 09:15 Mostly Cloudy 72 22.3 60 15.5 66 66 S 3 6 29.97 1015 10 16 N/A
9:35 am 09:35 Partly Cloudy 74 23.6 60 15.5 61 61 SSW 5 7 29.97 1015 10 16 N/A
9:55 am 09:55 Sunny 74 23.6 60 15.5 61 61 SW 5 7 29.97 1015 10 16 N/A
10:15 am 10:15 Sunny 75 23.7 59 14.9 58 58 S 5 7 29.97 1015 10 16 N/A
10:35 am 10:35 Sunny 77 25.1 60 15.5 55 55 SSW 3 6 29.97 1015 10 16 N/A
10:55 am 10:55 Sunny 80 26.5 61 16.3 54 54 SSW 7 11 29.97 1015 10 16 N/A
11:15 am 11:15 Sunny 80 26.5 59 15.2 50 50 SSW 6 9 29.97 1015 10 16 N/A
11:35 am 11:35 Sunny 80 26.9 60 15.8 51 51 SW 7 11 29.97 1015 10 16 N/A
11:55 am 11:55 Sunny 81 27.3 60 15.3 48 48 SW 8 13 29.97 1015 10 16 N/A
12:15 pm 12:15 Partly Cloudy 82 28 60 15.3 46 46 SW 10 17 29.94 1014 10 16 N/A
12:35 pm 12:35 Partly Cloudy 83 28.6 61 16.1 47 47 WSW 7 11 29.94 1014 10 16 N/A
12:55 pm 12:55 Sunny 83 28.6 60 15.7 46 46 WSW 9 15 29.91 1013 10 16 N/A
1:15 pm 13:15 Sunny 85 29.3 61 15.9 44 44 WSW 13 20 29.91 1013 10 16 N/A
1:35 pm 13:35 Partly Cloudy 86 30.2 62 16.6 44 44 SW 9 15 29.91 1013 10 16 N/A
1:55 pm 13:55 Partly Cloudy 89 31.7 63 17.3 42 42 WSW 10 17 29.91 1013 10 16 N/A
2:15 pm 14:15 Mostly Cloudy 89 31.9 63 17.3 42 42 SW 8 13 29.91 1013 10 16 N/A
2:35 pm 14:35 Mostly Cloudy 90 32.1 64 17.6 42 42 SW 10 17 29.91 1013 10 16 N/A
2:55 pm 14:55 Partly Cloudy 90 32.1 63 17.4 41 41 WSW 8 13 29.91 1013 10 16 N/A
3:15 pm 15:15 Sunny 90 32.1 65 18.1 43 43 WSW 10 17 29.91 1013 10 16 N/A
3:35 pm 15:35 Partly Cloudy 90 32.1 64 17.8 42 42 SW 13 20 29.91 1013 10 16 N/A
3:55 pm 15:55 Partly Cloudy 90 32.1 64 17.8 42 42 WSW 10 17 29.91 1013 10 16 N/A
4:15 pm 16:15 Partly Cloudy 90 32.1 64 17.5 42 42 SW 12 19 29.91 1013 10 16 N/A
4:35 pm 16:35 Partly Cloudy 90 32.1 63 17.2 41 41 W 12 19 29.88 1012 10 16 N/A
4:55 pm 16:55 Partly Cloudy 90 32.1 63 17.2 41 41 WSW 10 17 29.88 1012 10 16 N/A
5:15 pm 17:15 Partly Cloudy 90 32.1 63 17.1 41 41 W 12 19 29.88 1012 10 16 N/A
5:35 pm 17:35 Partly Cloudy 90 32.1 63 17.1 41 41 W 10 17 29.88 1012 10 16 N/A
5:55 pm 17:55 Partly Cloudy 90 32.1 63 17.1 41 41 WSW 10 17 29.88 1012 10 16 N/A
6:15 pm 18:15 Partly Cloudy 90 32.1 62 16.9 40 40 W 10 17 29.88 1012 10 16 N/A
6:35 pm 18:35 Sunny 90 32.1 64 17.8 42 42 W 9 15 29.88 1012 10 16 N/A
6:55 pm 18:55 Partly Cloudy 90 32.1 63 17.1 41 41 WSW 8 13 29.88 1012 10 16 N/A
7:15 pm 19:15 Partly Cloudy 90 32.1 65 18.2 44 44 WSW 5 7 29.88 1012 10 16 N/A
7:35 pm 19:35 Sunny 90 32.1 65 18.3 44 44 WSW 6 9 29.88 1012 10 16 N/A
7:55 pm 19:55 Sunny 87 30.7 66 18.8 49 49 WSW 3 6 29.88 1012 10 16 N/A
8:15 pm 20:15 Sunny 84 28.8 65 18.5 54 54 WSW 3 6 29.88 1012 10 16 N/A
8:35 pm 20:35 Partly Cloudy 82 28 65 18.2 55 55 SW 8 13 29.88 1012 10 16 N/A
8:55 pm 20:55 Mostly Cloudy 82 28 63 17.1 52 52 SW 12 19 29.91 1013 10 16 N/A
9:15 pm 21:15 Cloudy 80 26.7 64 17.5 57 57 SSW 10 17 29.94 1014 10 16 N/A
9:35 pm 21:35 Cloudy with Light Rain 80 26.5 65 18.5 62 62 SSW 8 13 29.94 1014 10 16 N/A
9:55 pm 21:55 Mostly Cloudy 77 25.1 66 18.8 68 68 SW 5 7 29.94 1014 10 16 N/A
10:15 pm 22:15 Partly Cloudy 77 25.1 66 19 69 69 SW 6 9 29.94 1014 10 16 N/A
10:35 pm 22:35 Clear 77 25.1 67 19.7 72 72 SSW 5 7 29.94 1014 10 16 N/A
10:55 pm 22:55 Clear 77 25.1 67 19.7 72 72 SSW 5 7 29.94 1014 10 16 N/A
11:15 pm 23:15 Clear 74 23.6 66 18.7 74 74 WSW 5 7 29.94 1014 10 16 N/A
11:35 pm 23:35 Clear 74 23.6 67 19.2 76 76 SW 6 9 29.94 1014 10 16 N/A
11:55 pm 23:55 Clear 74 23.6 67 19.2 76 76 N N/A 29.97 1015 10 16 N/A

Powered by AerisWeather